This is the latest recevied weather packets stored in our database for station/object AA5QJ. If no packets are shown the sender has not sent any weather packets the latest 1 day(s).
| Time | Temp. | Humidity | Pressure | Rain* | Wind** | Luminosity | Snow |
|---|---|---|---|---|---|---|---|
| 1778011974 | 0.56° C | 40% | 1009.2 hPa | 0 mm | 2.68 m/s, 124° | - | - |
| 1778011676 | 0.56° C | 41% | 1009.2 hPa | 0 mm | 2.24 m/s, 165° | - | - |
| 1778011375 | 3.33° C | 41% | 1009.2 hPa | 0 mm | 3.58 m/s, 128° | - | - |
| 1778011075 | 1.67° C | 41% | 1009.2 hPa | 0 mm | 4.47 m/s, 94° | - | - |
| 1778010775 | 8.33° C | 41% | 1009.2 hPa | 0 mm | 3.13 m/s, 76° | - | - |
| 1778010474 | 6.67° C | 41% | 1009.2 hPa | 0 mm | 3.58 m/s, 103° | - | - |
| 1778010174 | 8.33° C | 40% | 1009.2 hPa | 0 mm | 0.89 m/s, 280° | - | - |
| 1778009876 | 8.89° C | 41% | 1009.5 hPa | 0 mm | 2.68 m/s, 179° | - | - |
| 1778009575 | 8.89° C | 41% | 1009.5 hPa | 0 mm | 2.24 m/s, 118° | - | - |
| 1778009275 | 8.89° C | 42% | 1009.5 hPa | 0 mm | 2.68 m/s, 117° | - | - |
| 1778008975 | 3.89° C | 42% | 1009.5 hPa | 0 mm | 2.24 m/s, 101° | - | - |
| 1778008674 | 5.56° C | 43% | 1009.5 hPa | 0 mm | 2.68 m/s, 100° | - | - |
| 1778008374 | 5° C | 41% | 1009.5 hPa | 0 mm | 1.79 m/s, 15° | - | - |
| 1778008076 | 11.67° C | 42% | 1009.5 hPa | 0 mm | 2.24 m/s, 117° | - | - |
| 1778007775 | 5° C | 41% | 1009.5 hPa | 0 mm | 1.34 m/s, 257° | - | - |
| 1778007475 | 9.44° C | 41% | 1009.5 hPa | 0 mm | 1.79 m/s, 269° | - | - |
| 1778007175 | 8.89° C | 42% | 1009.5 hPa | 0 mm | 1.34 m/s, 111° | - | - |
| 1778006874 | 8.89° C | 42% | 1009.5 hPa | 0 mm | 0 m/s | - | - |
| 1778006574 | 9.44° C | 43% | 1009.5 hPa | 0 mm | 1.34 m/s, 150° | - | - |
| 1778006274 | 9.44° C | 43% | 1009.5 hPa | 0 mm | 2.24 m/s, 138° | - | - |
| 1778005976 | 9.44° C | 43% | 1009.5 hPa | 0 mm | 3.13 m/s, 179° | - | - |
| 1778005676 | 9.44° C | 43% | 1009.5 hPa | 0 mm | 1.34 m/s, 186° | - | - |
| 1778005375 | 9.44° C | 43% | 1009.5 hPa | 0 mm | 1.79 m/s, 191° | - | - |
| 1778005075 | 8.89° C | 42% | 1009.5 hPa | 0 mm | 3.13 m/s, 249° | - | - |
| 1778004775 | 10.56° C | 44% | 1009.5 hPa | 0 mm | 0.45 m/s, 184° | - | - |
* Rain latest hour (hover to see other rain measurements)
** Current wind speed in m/s (hover to see current wind gust speed)